Location: Azul
(36.7830°S, 59.8500°W)
Time: 22:54:10
(UTC-03:00)

FO-29 - Pass Details

Date: 24 October 2021
Orbit: 799 x 1322 km, 98.5° (Epoch: 28 November)

Event Time Altitude Azimuth Distance (km) Brightness Sun altitude
Rises 20:38:13 0° 148° (SSE) 4,137 12.7 -14.5°
Reaches altitude 10° 20:41:55 10° 130° (SE) 3,242 12.0 -15.1°
Maximum altitude 20:46:48 18° 89° (E) 2,734 11.3 -16.0°
Enters shadow 20:47:06 18° 86° (E) 2,740 11.3 -16.1°
